www.pogodaiklimat.ru

Погода и климат >> Архив погоды >> Австралия >> Южная Австралия >> Порт Огаста


ПОГОДА в Порт Огаста

  • Прогноз погоды в Порт Огаста
  • Монитор погоды в Порт Огаста

АРХИВ ПОГОДЫ в Порт Огаста

Время (UTC), дата Ветер
(напр.,м/с)
 
Видим.   Явления Облачность Т
(С)
Тd
(С)
f
(%)
Тe
(С)
Тes
(С)
Комфортность P
(гПа)
Po
(гПа)
Тmin
(С)
Tmax
(С)
R
(мм)
R24
(мм)
S
(см)
19 14.04 ЮЗ 3 н/о н/о +13.5 -6.6 24 +13 +13 1015.3 1013.6
20 14.04 Ю 3 н/о 1/0
[]
+13.1 -6.5 25 +13 +13 1015.6 1013.9
21 14.04 Ю 2 н/о н/о +13.6 -6.6 24 +13 +13 1015.5 1013.8
22 14.04 ЮЗ 1 н/о н/о +16.4 -5.3 22 +17 +17 1016.0 1014.3
23 14.04 З 3 н/о н/о +22.8 -6.1 14 +21 +21 комфорт 1016.7 1015.0
00 15.04 С 2 н/о н/о +25.3 -6.1 12 +23 +23 комфорт 1016.6 1014.9
01 15.04 С 8 н/о н/о +31.6 -3.7 10 +28 +28 жарко 1016.2 1014.5
02 15.04 С 10 н/о 10/0
[]
+31.4 -1.4 12 +28 +28 жарко 1015.7 1014.0 +12.2
03 15.04 С 8 н/о н/о +31.3 -0.4 13 +28 +28 жарко 1014.9 1013.2
04 15.04 С 9 н/о н/о +31.3 -0.4 13 +28 +28 жарко 1014.0 1012.3
05 15.04 С 9 н/о 9/0
[]
+31.4 -0.3 13 +28 +28 жарко 1013.5 1011.8
06 15.04 С 8 н/о н/о +31.3 +1.6 15 +29 +29 жарко 1012.8 1011.1
07 15.04 С 8 н/о н/о +31.0 +1.4 15 +28 +28 жарко 1012.6 1010.9
08 15.04 С 8 н/о 10/0
[]
+30.3 +3.4 18 +28 +28 жарко 1013.0 1011.3
09 15.04 С 5 н/о н/о +29.2 +3.2 19 +27 +27 жарко 1013.9 1012.2
10 15.04 С 4 н/о н/о +27.4 +3.8 22 +26 +26 жарко 1014.6 1012.9
11 15.04 С 3 н/о 6/0
[]
+25.5 +3.5 24 +25 +25 комфорт 1015.1 1013.4
12 15.04 С 4 н/о н/о +24.7 +3.9 26 +24 +24 комфорт 1015.3 1013.6
13 15.04 СЗ 3 н/о н/о +25.6 +4.1 25 +25 +25 комфорт 1015.6 1013.9
14 15.04 СЗ 4 н/о 3/0
[]
+25.3 +4.4 26 +25 +25 комфорт 1015.5 1013.8 +32.0
15 15.04 З 4 н/о н/о +22.7 +3.8 29 +23 +23 комфорт 1015.1 1013.4
16 15.04 З 3 н/о н/о +20.4 +3.2 32 +21 +21 комфорт 1015.2 1013.5
17 15.04 З 3 н/о 8/0
[]
+20.4 +3.6 33 +21 +21 комфорт 1015.2 1013.5
18 15.04 СЗ 3 н/о н/о +19.5 +3.2 34 +20 +20 1015.0 1013.3
19 15.04 СЗ 3 н/о н/о +22.0 +3.2 29 +22 +22 комфорт 1015.4 1013.7
20 15.04 СЗ 3 н/о 6/0
[]
+20.7 +3.0 31 +21 +21 комфорт 1016.3 1014.6
21 15.04 СЗ 4 н/о н/о +21.7 +3.4 30 +22 +22 комфорт 1016.8 1015.1
22 15.04 С 5 н/о н/о +23.4 +3.4 27 +23 +23 комфорт 1017.4 1015.7
23 15.04 С 6 н/о н/о +27.0 +3.5 22 +26 +26 жарко 1018.1 1016.4
00 16.04 С 9 н/о н/о +28.8 +3.6 20 +27 +27 жарко 1018.0 1016.3
01 16.04 С 9 н/о н/о +30.8 +4.5 19 +29 +29 жарко 1017.5 1015.8
02 16.04 С 9 н/о н/о +32.5 +5.1 18 +30 +30 жарко 1017.1 1015.4 +19.2
03 16.04 С 9 н/о н/о +34.6 +5.1 16 +32 +32 жарко 1016.0 1014.3
04 16.04 С 10 н/о н/о +34.7 +4.3 15 +32 +32 жарко 1014.8 1013.1
05 16.04 С 9 н/о н/о +35.4 +3.9 14 +32 +32 жарко 1014.2 1012.5
06 16.04 С 9 н/о н/о +35.4 +2.8 13 +32 +32 жарко 1013.9 1012.2
07 16.04 С 9 н/о н/о +35.3 +2.7 13 +32 +32 жарко 1013.5 1011.8
08 16.04 С 9 н/о н/о +33.4 +2.3 14 +30 +30 жарко 1013.8 1012.1
09 16.04 С 7 н/о н/о +30.8 +2.1 16 +28 +28 жарко 1014.5 1012.8
10 16.04 С 6 н/о н/о +28.7 +2.1 18 +27 +27 жарко 1014.9 1013.2
11 16.04 С 5 н/о 1/0
[]
+27.5 +2.6 20 +26 +26 жарко 1015.1 1013.4
12 16.04 СЗ 2 н/о н/о +23.8 +1.4 23 +23 +23 комфорт 1015.7 1014.0
13 16.04 С 4 н/о н/о +23.8 +2.0 24 +23 +23 комфорт 1015.7 1014.0
14 16.04 С 7 н/о н/о +25.0 +3.0 24 +24 +24 комфорт 1015.1 1013.4 +36.8
15 16.04 С 7 н/о н/о +24.7 +2.8 24 +24 +24 комфорт 1014.9 1013.2
16 16.04 С 6 н/о н/о +24.5 +3.2 25 +24 +24 комфорт 1014.9 1013.2
17 16.04 С 6 н/о 4/0
[]
+24.2 +3.5 26 +24 +24 комфорт 1014.6 1012.9
18 16.04 С 4 н/о н/о +23.3 +3.3 27 +23 +23 комфорт 1014.7 1013.0
19 16.04 С 5 н/о н/о +23.5 +3.4 27 +23 +23 комфорт 1014.5 1012.8
20 16.04 С 6 н/о 9/0
[]
+23.2 +3.2 27 +23 +23 комфорт 1015.0 1013.3
21 16.04 С 6 н/о н/о +22.3 +3.4 29 +22 +22 комфорт 1015.9 1014.2
22 16.04 С 6 н/о н/о +22.2 +3.3 29 +22 +22 комфорт 1017.0 1015.3
23 16.04 С 8 н/о 8/0
[]
+25.7 +3.0 23 +25 +25 комфорт 1018.2 1016.5
00 17.04 С 7 н/о н/о +27.7 +2.7 20 +26 +26 жарко 1018.3 1016.6
01 17.04 С 8 н/о н/о +28.7 +2.8 19 +27 +27 жарко 1017.9 1016.2
02 17.04 С 9 н/о 9/0
[]
+30.3 +1.7 16 +28 +28 жарко 1017.6 1015.9 +21.8
03 17.04 С 8 н/о н/о +30.9 +2.2 16 +28 +28 жарко 1017.4 1015.7
04 17.04 С 9 н/о н/о +34.1 +1.8 13 +31 +31 жарко 1016.3 1014.6
05 17.04 СЗ 8 н/о 9/0
[]
+32.5 +2.5 15 +30 +30 жарко 1015.9 1014.2
06 17.04 СЗ 8 н/о н/о +33.1 +3.0 15 +30 +30 жарко 1015.9 1014.2
07 17.04 СЗ 5 н/о н/о +32.6 +3.5 16 +30 +30 жарко 1016.1 1014.4
08 17.04 ЮВ 11 н/о 3/0
[]
+22.9 +14.7 60 +27 +27 душно 1017.4 1015.7
09 17.04 Ю 12 н/о н/о +22.1 +13.2 57 +25 +25 комфорт 1019.0 1017.3
10 17.04 Ю 10 н/о н/о +22.2 +13.0 56 +25 +25 комфорт 1020.2 1018.5
11 17.04 Ю 11 н/о 8/0
[]
+21.5 +12.9 58 +24 +24 комфорт 1021.0 1019.3
12 17.04 Ю 10 н/о н/о +21.0 +11.9 56 +23 +23 комфорт 1021.9 1020.2
13 17.04 Ю 9 н/о н/о +19.8 +12.8 64 +21 +21 комфорт 1022.3 1020.6
14 17.04 ЮВ 9 н/о н/о +19.1 +13.7 71 +19 +19 1021.9 1020.2 +35.1
15 17.04 Ю 10 н/о н/о +17.9 +11.9 68 +17 +17 1022.3 1020.6
16 17.04 Ю 9 н/о н/о +17.4 +11.4 68 +16 +16 1022.5 1020.8
17 17.04 Ю 9 н/о н/о +17.2 +11.9 71 +16 +16 1022.0 1020.3
18 17.04 Ю 10 н/о н/о +16.7 +11.8 73 +15 +15 1021.9 1020.2
19 17.04 ЮВ 10 н/о н/о +16.6 +11.5 72 +15 +15 1021.9 1020.2
20 17.04 Ю 8 н/о н/о +16.4 +11.8 74 +15 +15 1022.3 1020.6
21 17.04 ЮВ 8 н/о н/о +16.8 +12.3 75 +15 +15 1022.6 1020.9
22 17.04 ЮВ 8 н/о н/о +17.3 +10.4 64 +16 +16 1023.2 1021.5
23 17.04 ЮВ 7 н/о н/о +19.0 +10.0 56 +19 +19 1023.9 1022.2
00 18.04 ЮВ 4 н/о н/о +21.6 +10.1 48 +23 +23 комфорт 1023.9 1022.2
01 18.04 В 6 н/о н/о +24.8 +9.5 38 +26 +26 жарко 1023.6 1021.9
02 18.04 В 4 н/о н/о +26.3 +9.2 34 +27 +27 жарко 1023.0 1021.3 +16.4
03 18.04 С 3 н/о н/о +27.2 +8.6 31 +27 +27 жарко 1022.0 1020.3
04 18.04 СВ 4 н/о н/о +29.9 +7.8 25 +29 +29 жарко 1020.8 1019.1
05 18.04 СВ 5 н/о н/о +31.4 +7.1 22 +30 +30 жарко 1019.9 1018.2
06 18.04 С 3 н/о н/о +31.8 +6.8 21 +30 +30 жарко 1019.5 1017.8
07 18.04 ЮВ 6 н/о н/о +28.1 +12.0 37 +29 +29 жарко 1019.3 1017.6
08 18.04 ЮВ 6 н/о н/о +25.2 +10.6 40 +26 +26 жарко 1019.6 1017.9
09 18.04 ЮВ 6 н/о н/о +23.3 +13.8 55 +27 +27 душно 1020.0 1018.3
10 18.04 ЮВ 5 н/о н/о +23.6 +9.9 42 +25 +25 комфорт 1020.6 1018.9
11 18.04 ЮВ 5 н/о н/о +21.5 +12.1 55 +24 +24 комфорт 1021.0 1019.3
12 18.04 ЮВ 5 н/о н/о +21.4 +12.0 55 +24 +24 комфорт 1021.2 1019.5
13 18.04 ЮВ 4 н/о н/о +22.4 +10.5 47 +24 +24 комфорт 1021.4 1019.7
14 18.04 ЮВ 4 н/о н/о +22.9 +9.3 42 +24 +24 комфорт 1021.2 1019.5 +33.1
15 18.04 штиль 0 н/о н/о +20.7 +9.0 47 +22 +22 комфорт 1021.3 1019.6
16 18.04 С 3 н/о н/о +17.5 +8.6 56 +18 +18 1021.1 1019.4
17 18.04 С 3 н/о н/о +16.1 +8.6 61 +16 +16 1020.4 1018.7
18 18.04 З 2 н/о н/о +15.5 +7.5 59 +15 +15 1020.2 1018.5
19 18.04 ЮЗ 2 н/о н/о +15.0 +7.1 59 +15 +15 1020.4 1018.7
20 18.04 СЗ 2 н/о н/о +14.5 +7.3 62 +14 +14 1020.6 1018.9
21 18.04 С 2 н/о н/о +14.3 +7.1 62 +14 +14 1020.9 1019.2
22 18.04 штиль 0 н/о н/о +17.1 +8.5 57 +17 +17 1021.4 1019.7
23 18.04 СЗ 1 н/о н/о +22.9 +8.6 40 +24 +24 комфорт 1021.8 1020.1
00 19.04 С 4 н/о н/о +27.0 +6.9 28 +27 +27 жарко 1021.8 1020.1
01 19.04 С 9 н/о н/о +31.3 +5.7 20 +29 +29 жарко 1021.2 1019.5
02 19.04 С 11 н/о н/о +31.5 +5.1 19 +29 +29 жарко 1020.1 1018.4 +13.8
03 19.04 С 11 н/о н/о +33.1 +4.8 17 +31 +31 жарко 1019.0 1017.3
04 19.04 С 10 н/о н/о +33.9 +3.7 15 +31 +31 жарко 1017.8 1016.1
05 19.04 С 8 н/о н/о +34.0 +2.8 14 +31 +31 жарко 1017.3 1015.6
06 19.04 С 9 н/о н/о +34.7 +3.3 14 +32 +32 жарко 1016.9 1015.2
07 19.04 С 7 н/о н/о +32.7 +3.6 16 +30 +30 жарко 1016.8 1015.1
08 19.04 С 7 н/о н/о +31.8 +3.8 17 +29 +29 жарко 1016.9 1015.2
09 19.04 С 3 н/о н/о +28.1 +3.7 21 +27 +27 жарко 1017.4 1015.7
10 19.04 СВ 4 н/о н/о +25.1 +3.1 24 +24 +24 комфорт 1017.8 1016.1
11 19.04 СВ 5 н/о н/о +26.6 +3.8 23 +25 +25 комфорт 1018.1 1016.4
12 19.04 штиль 0 н/о н/о +21.7 +3.4 30 +22 +22 комфорт 1018.4 1016.7
13 19.04 штиль 0 н/о н/о +22.5 +3.1 28 +22 +22 комфорт 1018.2 1016.5
14 19.04 ЮЗ 2 н/о н/о +19.6 +2.0 31 +20 +20 1017.8 1016.1 +35.4
15 19.04 ЮЗ 3 н/о н/о +18.5 +1.9 33 +19 +19 1017.4 1015.7
16 19.04 З 3 н/о н/о +17.8 +1.7 34 +18 +18 1017.3 1015.6
17 19.04 СЗ 2 н/о н/о +17.3 +2.1 36 +18 +18 1016.9 1015.2
18 19.04 З 3 н/о н/о +16.5 +2.2 38 +16 +16 1016.8 1015.1
19 19.04 ЮЗ 2 н/о н/о +16.5 +1.8 37 +17 +17 1016.8 1015.1
20 19.04 З 2 н/о н/о +15.1 +1.6 40 +15 +15 1016.8 1015.1
21 19.04 З 3 н/о н/о +14.2 +1.2 41 +14 +14 1017.2 1015.5
22 19.04 З 1 н/о н/о +17.8 +2.5 36 +19 +19 1017.4 1015.7
23 19.04 СЗ 3 н/о н/о +23.6 +3.5 27 +23 +23 комфорт 1018.0 1016.3
00 20.04 С 8 н/о н/о +28.9 +2.2 18 +27 +27 жарко 1017.9 1016.2
01 20.04 С 9 н/о н/о +28.9 +3.0 19 +27 +27 жарко 1017.5 1015.8
02 20.04 С 10 н/о н/о +29.5 +3.5 19 +27 +27 жарко 1016.7 1015.0 +14.0
03 20.04 С 9 н/о н/о +30.7 +2.9 17 +28 +28 жарко 1015.6 1013.9
04 20.04 С 9 н/о н/о +32.5 +1.6 14 +29 +29 жарко 1014.3 1012.6
05 20.04 С 10 н/о н/о +32.2 +2.3 15 +29 +29 жарко 1013.4 1011.7
06 20.04 С 10 н/о н/о +32.3 +2.4 15 +29 +29 жарко 1012.9 1011.2
07 20.04 С 9 н/о н/о +31.1 +2.3 16 +29 +29 жарко 1012.4 1010.7
08 20.04 С 9 н/о н/о +30.0 +3.1 18 +28 +28 жарко 1012.5 1010.8
09 20.04 С 6 н/о н/о +28.6 +2.7 19 +27 +27 жарко 1012.7 1011.0
10 20.04 С 5 н/о н/о +26.6 +3.2 22 +25 +25 комфорт 1013.2 1011.5
11 20.04 СВ 4 н/о 1/0
[]
+24.1 +2.9 25 +23 +23 комфорт 1013.2 1011.5
12 20.04 СВ 5 н/о н/о +24.6 +2.7 24 +24 +24 комфорт 1013.1 1011.4
13 20.04 З 3 н/о н/о +22.6 +2.7 27 +22 +22 комфорт 1013.7 1012.0
14 20.04 ЮЗ 13 н/о 9/0
[]
+21.4 +13.8 62 +24 +24 комфорт 1014.5 1012.8 +33.9
15 20.04 ЮЗ 8 н/о н/о +19.1 +13.3 69 +20 +20 1017.1 1015.4
16 20.04 Ю 8 н/о н/о +18.4 +12.2 67 +18 +18 1017.2 1015.5
17 20.04 Ю 7 н/о 10/0
[]
+18.0 +12.5 70 +17 +17 1017.4 1015.7
18 20.04 Ю 7 н/о н/о +17.8 +12.7 72 +17 +17 1017.2 1015.5
19 20.04 Ю 5 н/о н/о +17.5 +13.2 76 +17 +17 1017.8 1016.1
20 20.04 ЮЗ 4 н/о 10/10 300 м
[]
+16.8 +12.3 75 +16 +16 1018.1 1016.4
21 20.04 ЮЗ 6 н/о н/о +16.0 +12.2 78 +15 +15 1018.8 1017.1
22 20.04 ЮЗ 5 н/о н/о +16.3 +11.9 75 +15 +15 1019.1 1017.4
23 20.04 Ю 6 н/о 1/0
[]
+17.4 +11.7 69 +17 +17 1019.6 1017.9
00 21.04 Ю 6 н/о н/о +17.3 +13.6 79 +16 +16 1020.5 1018.8
01 21.04 Ю 8 н/о н/о +19.0 +9.8 55 +19 +19 1020.6 1018.9
02 21.04 Ю 7 н/о 6/6 1000 м
[]
+19.9 +8.9 49 +21 +21 комфорт 1020.9 1019.2 +15.8
03 21.04 Ю 7 н/о н/о +20.1 +9.4 50 +21 +21 комфорт 1020.5 1018.8
04 21.04 Ю 8 н/о н/о +18.2 +9.3 56 +18 +18 1020.2 1018.5
05 21.04 Ю 7 н/о 10/0 2000 м
[]
+18.9 +8.0 49 +19 +19 1020.2 1018.5
06 21.04 Ю 7 н/о н/о +16.3 +9.7 65 +15 +15 1021.1 1019.4
07 21.04 Ю 6 н/о н/о +16.6 +9.3 62 +16 +16 1020.7 1019.0
08 21.04 ЮВ 5 н/о {туман} 9/0
[]
+17.0 +12.1 73 +16 +16 1021.2 1019.5
09 21.04 ЮВ 6 н/о н/о +16.7 +12.0 74 +16 +16 1021.4 1019.7
10 21.04 Ю 7 н/о н/о +17.2 +11.5 69 +16 +16 1022.1 1020.4
11 21.04 Ю 6 н/о {туман} 10/0 2000 м
[]
+17.5 +10.1 62 +17 +17 1022.7 1021.0 0.4
12 21.04 Ю 8 н/о н/о +17.8 +8.9 56 +17 +17 1022.9 1021.2
13 21.04 Ю 8 н/о н/о +17.1 +9.3 60 +16 +16 1022.7 1021.0
14 21.04 Ю 7 н/о н/о +15.9 +9.1 64 +14 +14 1022.7 1021.0 +24.9
15 21.04 Ю 9 н/о н/о +15.7 +8.4 62 +14 +14 1022.5 1020.8
16 21.04 Ю 7 н/о н/о +15.2 +8.4 64 +14 +14 1023.3 1021.6
17 21.04 ЮВ 7 н/о 8/0 2000 м
[]
+15.4 +10.8 74 +14 +14 1023.2 1021.5
18 21.04 Ю 8 н/о н/о +15.3 +9.7 69 +13 +13 1022.8 1021.1
19 21.04 ЮВ 7 н/о н/о +15.4 +10.8 74 +14 +14 1022.9 1021.2

 

Местоположение метеостанции Порт Огаста (Южная Австралия, Австралия): широта -32.52 долгота 137.72 высота над уровнем моря 14 м.

В архиве по умолчанию представлена погода в Порт Огаста за последнюю неделю. Архивные данные за месяц целиком и за предыдущие месяцы, начиная с января 2011 года, Вы можете получить, выбрав интересующий диапазон дат из раскрывающегося списка и нажав кнопку "Ввод!".


*Определитесь, кто Вы:
робот инопланетянин человек

Внимание! Время в таблицах - всемирное. Для получения местного времени необходимо прибавить поправку, которая равна 9.5 ч.

Смотрите также архив погоды в соседних городах и на ближайших метеорологических станциях:

Погода в Уиолле (Южная Австралия, Австралия) (64 км)
Погода в Сноутауне (Южная Австралия, Австралия) (148 км)
Погода в Кадине (Южная Австралия, Австралия) (161 км)
Погода в Мунте (Южная Австралия, Австралия) (166 км)
Погода в Клэре (Южная Австралия, Австралия) (166 км)
Погода в Юнте (Южная Австралия, Австралия) (174 км)
Погода на Аэродроме Вумера (Южная Австралия, Австралия) (175 км)
Погода в Кливе аэропорту (Южная Австралия, Австралия) (175 км)
Погода в Уудинне (Южная Австралия, Австралия) (220 км)
Погода в Ли-Крике (Южная Австралия, Австралия) (224 км)

Пояснения к столбцам:

Ветер - указаны скорость ветра в м/с - средняя за 10 мин, порывы в срок и между сроками (в фигурных скобках) и направление, откуда дует ветер: С - северный, СВ - северо-восточный, В - восточный, ЮВ - юго-восточный, Ю - южный, ЮЗ - юго-западный, З - западный, СЗ - северо-западный.
Видимость - горизонтальная дальность видимости в метрах или километрах. При видимости от 1 до 10 км при отсутствии осадков обычно наблюдается дымка, при ухудшении видимости до 1 км и менее - туман. В сухую погоду видимость может ухудшаться дымом, пылью или мглою.
Явления - указаны атмосферные явления, наблюдавшиеся в срок или в последний час перед сроком; фигурными скобками обозначены явления, наблюдавшиеся между сроками (за 1-3 часа до срока); квадратными скобками обозначены град или гололедные отложения с указанием их диаметра в мм.
Облачность - указаны через наклонную черту общая и нижняя облачность в баллах и высота нижней границы облаков в метрах; квадратными скобками обозначены формы облаков: Ci - перистые, Cs - перисто-слоистые, Cc - перисто-кучевые, Ac - высококучевые, As - высокослоистые, Sc - слоисто-кучевые, Ns - слоисто-дождевые, Cu - кучевые, Cb - кучево-дождевые. Подробнее классификацию облаков см. в Атласе облаков (PDF).
T - Температура воздуха - температура, измеренная на высоте 2 м над землей.
Td - Температура точки росы - температура, при понижении до которой содержащийся в воздухе водяной пар достигнет насыщения.
f - Относительная влажность воздуха - влажноcть воздуха, измеренная на высоте 2 м над землей.
Te - Эффективная температура - температура, которую ощущает одетый по сезону человек в тени. Характеристика душности погоды. При расчете учитывается влияние влажности воздуха и скорости ветра на теплоощущения человека.
Tes - Эффективная температура на солнце - температура, которую ощущает человек, с поправкой на солнечный нагрев. Характеристика знойности погоды. Зависит от высоты солнца над горизонтом, облачности и скорости ветра. Ночью, в пасмурную погоду, а также при ветре 12 м/с и более поправка равна нулю.
P - Атмосферное давление - приведенное к уровню моря атмосферное давление.
Po - Атмосферное давление - измеренное на уровне метеостанции атмосферное давление.
Tmin - Минимальная температура - минимум температуры воздуха на высоте 2 м над землей.
Tmax - Максимальная температура - максимум температуры воздуха на высоте 2 м над землей.
R - Количество осадков - Количество выпавших осадков за период времени, мм. При наведении курсора мыши на число - период времени, за который выпало указанное количество осадков.
R24 - Количество осадков - Количество выпавших осадков за 24 часа, мм.
S - Снежный покров - Высота снежного покрова, см. При наведении курсора мыши на число - состояние снежного покрова и степень покрытия местности в баллах.